Theta_e
313 313 313 319 322 324 326 323 320 317 317 314 313 312 310 307 302 299 296 294 294 293 293 292 292 291 291 291 291 290 290 289 290 289 289 288 288 288 288 288 288 288 288
314 315 317 319 321 321 319 315 314 314 312 313 310 305 301 297 295 294 294 293 293 292 292 291 291 291 290 290 289 288 288 288 288 287 287 287 287 287 287 287 287 287 287
310 312 313 314 315 314 312 311 310 311 308 303 300 297 294 294 294 293 293 292 292 291 291 290 290 289 289 288 287 287 286 286 286 286 286 287 286 287 286 287 286 286 285
308 309 310 310 310 309 308 306 306 303 300 296 294 294 294 293 293 292 292 291 291 290 290 289 289 288 287 287 286 286 286 286 286 286 286 286 286 286 286 285 285 285 285
305 305 305 305 304 303 301 299 297 296 294 294 294 293 293 292 292 291 291 290 290 289 289 288 288 287 286 285 285 285 286 286 286 286 286 286 286 286 285 285 285 285 285
301 301 301 300 299 298 296 295 294 293 293 293 292 292 292 291 291 291 290 289 289 289 288 288 287 286 286 284 285 285 286 286 285 286 286 286 285 285 285 285 285 285 284
298 297 297 296 295 294 293 293 293 292 292 292 291 291 290 290 290 290 290 289 289 288 288 287 287 285 285 284 285 285 285 285 285 285 285 285 285 285 284 285 283 282 282
296 295 295 294 293 292 292 292 292 292 291 291 290 290 289 289 289 289 289 288 288 287 287 286 285 285 284 285 285 285 285 284 285 285 285 285 285 284 284 284 282 282 282
294 294 293 293 292 292 291 291 291 291 290 289 289 289 289 289 289 288 288 287 286 286 285 284 283 283 283 284 285 285 284 284 284 284 284 284 284 283 283 283 282 282 282
293 293 293 292 292 291 291 291 290 289 289 289 289 288 288 288 287 287 286 286 285 284 284 283 283 283 284 284 284 285 285 284 284 284 284 283 283 283 282 282 282 282 281
294 293 292 291 292 291 291 290 289 289 288 288 288 287 287 286 286 285 285 285 284 284 283 283 283 283 284 284 284 284 284 285 285 284 283 283 282 282 282 282 282 282 281
293 292 291 291 291 290 289 289 288 288 287 287 286 285 284 284 284 284 283 283 283 283 283 282 283 283 284 285 284 283 283 283 283 284 283 282 282 282 281 281 281 281 281
292 291 291 290 290 289 288 288 287 287 286 285 284 284 283 283 283 282 282 282 282 282 282 282 283 283 283 283 283 283 282 281 281 281 281 281 282 281 281 281 281 281 281
291 290 289 289 288 287 288 288 287 286 285 284 283 283 282 282 282 282 282 282 281 282 282 282 282 283 282 282 282 281 279 279 280 280 280 280 281 280 280 280 280 280 280
289 289 288 288 288 287 286 286 285 285 285 284 283 283 282 282 282 281 281 281 281 281 281 280 281 280 280 279 278 277 277 277 277 278 278 278 279 278 278 279 279 280 279
287 286 286 286 285 285 284 283 283 282 282 282 282 282 281 281 280 280 280 280 280 280 279 278 278 277 277 276 275 274 274 274 274 274 275 275 275 276 276 277 278 278 279
288 287 285 285 284 284 283 282 280 279 279 280 280 279 279 280 279 279 279 279 279 278 277 277 276 275 275 274 274 273 272 272 272 272 272 273 273 273 274 274 275 277 277
288 288 286 286 285 284 283 282 281 280 279 279 278 278 278 277 278 277 277 277 277 276 275 275 275 274 273 273 272 272 271 271 271 270 271 271 272 272 272 272 273 274 275
287 287 286 285 284 284 283 282 281 280 279 279 277 277 276 276 276 275 275 276 275 275 274 274 273 272 272 272 271 270 270 270 269 269 269 270 270 270 270 271 271 272 272
286 286 285 284 283 282 281 280 278 277 277 277 277 277 276 275 275 275 275 274 273 273 272 272 271 271 271 270 270 269 269 269 269 269 268 268 269 269 269 269 270 270 270
286 284 283 282 282 281 280 278 277 277 277 277 277 277 275 274 274 274 274 273 272 271 270 270 270 270 269 269 269 268 268 268 268 267 267 268 268 268 268 268 268 268 268
284 283 281 280 280 278 277 276 276 275 276 276 275 275 274 272 272 272 272 271 270 269 269 269 269 269 269 269 268 268 268 268 268 267 267 267 267 266 266 266 267 267 267
281 279 278 277 277 276 275 275 274 274 273 273 273 273 272 271 271 271 270 270 269 269 268 268 268 268 268 268 267 267 267 268 267 266 266 266 266 266 265 265 265 265 265
278 277 276 276 275 274 274 273 273 272 272 271 271 271 270 270 269 269 269 268 268 268 268 268 267 267 267 268 267 267 266 266 266 266 265 265 265 265 264 264 264 264 264
276 274 273 272 272 271 271 270 270 270 270 270 270 269 269 268 268 268 268 267 267 267 267 267 267 267 266 266 266 266 266 265 265 265 265 264 264 264 264 263 263 263 263
273 272 272 271 270 270 270 269 269 270 269 269 269 268 267 267 267 267 267 267 267 266 266 266 266 265 264 264 264 264 264 264 264 264 264 264 264 264 264 264 264 263 263
Wind_Speed
16 18 21 24 26 26 27 26 25 23 19 16 14 13 12 12 11 11 12 11 9 9 8 8 9 9 11 11 11 11 11 10 9 19 23 25 28 29 29 29 30 28 31
15 17 21 25 28 29 29 28 24 22 19 17 16 16 16 16 14 12 11 9 8 8 8 7 8 9 9 10 12 12 12 12 15 19 25 25 27 31 33 33 29 27 29
18 21 24 27 29 30 29 26 24 24 22 21 20 19 18 15 13 12 10 8 7 7 6 7 8 8 9 10 11 13 13 14 15 18 23 25 27 29 33 29 29 30 30
21 23 26 28 28 29 28 27 26 25 25 23 20 18 16 14 12 10 8 7 6 6 6 7 9 10 11 12 13 15 15 17 18 19 20 24 26 28 28 33 36 31 34
24 25 27 28 28 28 28 28 27 26 24 22 20 18 15 12 9 8 7 6 5 5 6 8 8 9 9 10 12 14 16 18 19 18 18 22 24 28 27 29 30 35 32
27 28 28 29 30 30 29 28 27 25 23 21 18 15 14 11 10 7 6 5 5 5 5 6 7 9 11 10 10 11 12 15 17 16 18 19 22 24 27 29 28 27 18
28 30 31 31 30 30 29 28 25 23 21 19 16 14 13 11 8 6 5 3 2 3 4 5 6 10 11 11 11 11 13 14 15 19 20 21 25 25 29 28 25 27 28
31 31 31 31 31 29 27 26 24 21 19 17 16 14 12 10 8 5 3 3 2 3 3 4 6 8 10 11 13 14 15 16 17 17 19 23 23 26 27 25 29 30 26
32 32 32 31 31 29 27 24 22 21 19 16 15 14 13 11 9 5 4 3 2 3 4 5 6 7 9 11 13 16 17 18 19 18 19 20 23 22 22 23 23 21 23
33 33 32 31 30 29 26 24 22 20 18 17 16 14 13 11 10 7 3 1 1 2 4 5 7 7 8 9 14 17 21 22 23 23 26 26 23 22 20 18 21 20 17
34 32 30 29 27 26 25 23 22 20 18 17 15 14 12 11 9 7 5 4 3 2 4 5 6 8 8 11 13 17 19 22 24 25 27 26 23 21 22 19 20 19 20
34 33 31 29 28 27 25 22 20 20 18 17 15 14 12 11 9 8 7 4 2 6 7 7 8 8 11 12 14 18 17 20 23 24 25 23 23 22 23 21 20 21 15
35 34 32 30 28 26 24 23 21 20 19 18 16 16 15 12 11 10 9 7 6 7 7 9 9 11 12 11 14 14 19 21 19 20 19 19 25 25 25 22 21 17 12
37 36 33 32 29 26 23 23 24 23 21 20 20 19 16 15 14 12 10 8 7 7 9 11 10 10 9 11 14 17 16 16 18 18 20 24 25 25 25 21 20 18 16
37 37 35 33 31 30 27 26 24 21 21 23 21 18 18 17 16 12 8 7 5 8 11 10 8 10 14 15 14 15 16 14 17 18 20 24 26 26 26 23 19 17 14
35 37 36 34 32 30 27 23 22 20 20 19 17 17 16 14 13 10 9 6 10 11 10 9 10 12 13 14 15 17 16 16 17 19 19 21 23 24 25 24 20 17 16
36 36 35 35 34 31 28 27 25 19 18 18 16 15 14 14 13 12 8 11 12 11 10 10 12 12 13 14 15 15 18 18 18 18 17 19 20 22 22 21 19 16 16
37 38 38 37 35 34 33 31 28 27 25 22 18 18 17 15 14 11 12 16 12 12 11 11 12 12 13 14 15 16 17 18 18 17 18 18 17 18 19 19 16 16 14
35 34 35 33 32 31 29 27 27 27 27 23 23 22 20 17 14 12 17 16 14 13 13 12 12 12 13 14 15 15 16 16 16 15 15 15 14 14 16 15 15 13 11
30 30 29 28 27 27 28 29 29 28 26 27 26 25 22 20 20 21 19 17 16 15 14 13 12 12 13 13 13 14 15 15 14 14 14 14 13 13 14 14 13 12 11
32 29 28 27 29 32 33 33 32 30 30 28 28 22 22 23 21 20 21 20 18 16 15 15 13 13 13 14 15 14 15 16 14 14 14 14 14 15 14 14 14 13 12
31 31 31 32 32 32 33 32 31 30 30 28 27 22 20 22 22 21 20 19 18 17 16 16 15 15 14 15 15 17 17 18 16 14 15 14 15 15 15 15 15 15 14
31 31 30 30 30 30 29 30 30 30 30 27 25 23 25 27 25 22 21 19 19 19 17 19 19 18 16 17 18 18 19 19 17 17 17 16 16 16 16 17 17 17 16
31 32 32 32 32 32 31 32 31 30 28 26 25 24 25 25 23 22 21 20 20 19 19 19 20 20 20 18 19 19 21 20 19 19 19 19 19 19 19 19 19 18 17
27 30 31 31 31 30 29 29 26 26 26 25 25 25 24 23 22 22 21 20 20 20 20 19 20 21 22 21 19 20 21 20 20 20 20 21 21 21 21 21 20 19 17
24 27 29 29 29 27 26 26 26 26 25 25 24 24 24 23 22 22 21 20 20 21 21 21 21 22 22 23 21 21 22 22 22 21 19 19 20 20 21 21 20 19 17
Wind_Direction
198 203 202 195 198 193 184 173 168 164 165 165 164 158 153 147 138 134 121 110 101 91 78 56 46 30 18 8 5 2 358 355 306 312 319 330 333 337 336 336 337 334 333
180 180 178 180 178 174 168 166 166 164 159 162 161 154 146 140 129 122 118 111 96 80 65 47 35 23 15 9 6 8 360 350 331 322 328 335 333 334 333 333 338 331 332
173 168 164 165 167 164 162 163 163 159 156 154 152 147 140 133 131 122 113 102 85 71 58 44 34 25 26 18 16 9 3 350 342 329 324 327 331 334 335 334 335 333 332
175 169 166 166 165 163 161 160 158 156 152 149 147 143 139 135 128 119 109 100 91 75 58 46 39 35 29 17 9 5 355 346 340 334 329 326 331 333 333 333 332 333 329
176 173 169 166 164 160 157 155 151 151 149 149 148 143 137 134 129 127 123 115 103 86 62 48 37 34 27 25 9 358 350 340 337 332 322 324 331 334 336 330 323 324 329
176 172 167 164 162 158 155 154 152 152 151 148 148 143 141 140 144 142 133 119 99 80 69 54 41 23 15 17 3 352 341 331 328 323 321 321 325 325 327 326 323 331 328
176 170 165 163 162 160 159 156 156 155 153 154 150 151 151 148 156 144 138 124 106 77 63 51 41 19 8 5 354 343 338 331 320 319 318 319 317 323 327 324 330 325 318
179 173 169 168 165 163 161 160 159 160 160 161 159 160 155 152 160 176 174 146 107 57 33 18 17 3 2 349 343 335 334 331 332 326 320 316 316 321 320 317 322 319 314
182 178 175 174 170 167 166 166 166 166 170 170 166 165 165 164 173 180 160 155 92 53 16 11 343 336 347 336 331 327 325 326 332 326 322 318 317 318 318 317 315 318 317
187 183 180 179 176 174 172 172 173 176 175 171 168 170 174 177 179 181 181 175 98 52 2 336 336 324 325 330 327 324 321 327 329 328 325 324 324 322 324 319 313 303 310
188 184 182 183 181 180 179 180 177 175 175 175 177 179 183 188 190 182 184 210 195 253 282 287 296 295 304 320 325 323 320 320 313 315 318 318 321 321 323 323 321 312 299
185 182 181 182 184 185 184 179 179 181 180 179 184 183 185 184 184 179 185 194 203 275 290 303 307 313 300 305 317 325 324 318 309 309 309 310 317 317 322 320 320 315 296
181 181 181 183 186 187 185 182 183 188 189 189 192 190 187 185 188 184 199 208 235 266 308 316 310 305 308 302 315 315 317 322 320 308 300 296 312 318 321 319 318 317 294
181 182 183 184 183 187 191 196 196 195 196 200 199 199 196 200 204 203 206 224 245 268 287 289 297 302 301 304 295 302 317 326 322 306 304 307 313 314 318 321 315 320 311
182 185 186 188 189 191 196 200 204 208 211 210 210 209 206 210 211 209 227 247 274 281 286 301 299 299 301 311 316 318 322 319 318 318 314 314 315 316 316 318 311 305 290
178 184 189 192 195 195 194 196 203 210 215 214 214 222 223 222 212 218 229 242 247 264 290 299 302 302 304 309 314 322 324 325 323 319 316 312 312 312 312 311 306 298 284
189 190 194 196 199 197 198 201 198 201 205 216 219 216 220 233 219 227 225 234 255 273 281 286 292 296 303 305 307 313 316 319 321 321 319 315 316 313 315 309 307 301 291
201 200 200 201 203 204 206 208 210 209 208 210 208 215 219 220 226 224 224 244 256 272 275 279 283 286 294 299 303 306 310 316 321 322 322 322 319 317 315 313 312 307 300
204 206 207 208 209 212 213 215 218 219 220 219 217 219 219 221 221 219 234 248 258 262 266 268 273 281 289 296 300 302 306 313 319 318 318 319 325 321 316 315 314 313 313
212 215 215 215 213 213 215 216 217 219 220 222 223 225 223 220 222 229 240 251 256 258 259 265 270 279 284 287 293 299 302 306 312 314 317 318 321 319 316 313 313 310 309
218 219 219 217 217 217 219 219 221 222 224 228 233 228 234 234 234 236 242 248 250 253 258 263 269 277 284 289 291 294 297 301 305 307 309 314 316 313 311 307 305 303 302
226 225 223 221 222 223 225 226 228 230 233 234 237 229 227 236 239 239 245 247 250 253 258 263 268 274 278 281 287 289 293 295 300 301 301 305 307 307 307 305 303 301 300
232 230 229 229 230 232 233 234 233 235 240 241 239 233 231 234 238 243 247 249 249 254 258 264 269 272 276 279 280 283 285 290 297 295 296 298 299 301 303 302 302 301 300
237 236 237 237 236 236 237 239 238 239 240 239 237 236 237 241 243 247 249 251 253 257 262 264 270 276 277 277 277 279 280 284 285 285 287 287 289 292 292 292 291 292 293
246 243 242 242 242 241 241 243 243 241 241 240 241 242 242 243 244 247 252 256 261 263 262 265 271 274 277 278 280 281 279 278 278 279 279 281 283 285 285 285 286 287 285
255 251 249 248 247 247 246 245 244 243 241 241 242 244 246 246 249 252 255 259 262 267 271 272 272 275 276 278 280 279 278 276 275 274 273 277 279 281 282 281 283 282 283